2018-099H (43765 NORAD) Tracking and Keplerian Element Data

This shows tracking and keplerian element data for the satellite.

Feedback or suggestion? Click here.




ElementValue
Catalog43765
Name2018-099H
Epoch Orbit99
Epoch Day344.44031642
Epoch Year2018
RAAN53.541
Inclination97.7668
Eccentricity0.0013589
Argument of Perigee249.3726
Mean Anonmoly110.6038
Mean Motion14.95958792
Decay Rate-2.83E-06
L11 43765U 18099H 18344.44031642 -.00000283 00000-0 -19967-4 0 9997
L22 43765 97.7668 53.5410 0013589 249.3726 110.6038 14.95958792 993

Live tracking and technical data element details for 2018-099H (NORAD 43765). 2018-099H can be tracked NOW for your location showing map with azimuth and elevation plus other details from your city location.

Track the satellite on the map from your city or location and see movement details for azimuth, elevation, latitude, longitude, range, height, and movement on the map or in text.







IsCatalogInMostPopularTable: catalog: 43765, numindb: 1
Update: records affected: 1



GetName: 43765 2018-099H

Hit Count: updated at: Tue, 11 Dec 2018 02:01:18 GMT